| time (UTC) | temp C | wind direction | speed KPH | gust KPH | rain 1hr cm | rain 24hr cm | rain mn cm | humidity % | barometer mb |
| 20260502130251 | 10 | 135 | 0.0 | 3.2 | 0.00 | 0.00 | 0.00 | 52 | 1010.1 |
| 20260502123731 | 9 | 147 | 3.2 | 16.1 | 0.00 | 0.00 | 0.00 | 53 | 1010.1 |
| 20260502123224 | 9 | 180 | 3.2 | 11.3 | 0.00 | 0.00 | 0.00 | 53 | 1010.1 |
| 20260502122719 | 9 | 137 | 4.8 | 11.3 | 0.00 | 0.00 | 0.00 | 53 | 1010.1 |
| 20260502122213 | 9 | 205 | 8.0 | 8.0 | 0.00 | 0.00 | 0.00 | 53 | 1010.1 |
| 20260502121701 | 9 | 172 | 1.6 | 8.0 | 0.00 | 0.00 | 0.00 | 54 | 1010.1 |
| 20260502121200 | 8 | 127 | 4.8 | 16.1 | 0.00 | 0.00 | 0.00 | 54 | 1010.1 |
| 20260502120650 | 8 | 175 | 1.6 | 12.9 | 0.00 | 0.00 | 0.00 | 54 | 1010.1 |
| 20260502120143 | 8 | 191 | 3.2 | 8.0 | 0.00 | 0.00 | 0.00 | 54 | 1010.4 |
| 20260502115633 | 8 | 182 | 4.8 | 8.0 | 0.00 | 0.00 | 0.00 | 56 | 1010.4 |
| 20260502115131 | 8 | 195 | 3.2 | 6.4 | 0.00 | 0.00 | 0.00 | 56 | 1010.1 |
| 20260502114620 | 8 | 168 | 1.6 | 8.0 | 0.00 | 0.00 | 0.00 | 57 | 1010.1 |
| 20260502114111 | 8 | 124 | 3.2 | 6.4 | 0.00 | 0.00 | 0.00 | 56 | 1010.1 |
| 20260502113605 | 8 | 173 | 3.2 | 6.4 | 0.00 | 0.00 | 0.00 | 57 | 1010.1 |
| 20260502113059 | 8 | 176 | 4.8 | 8.0 | 0.00 | 0.00 | 0.00 | 57 | 1010.1 |
| 20260502112540 | 8 | 149 | 0.0 | 1.6 | 0.00 | 0.00 | 0.00 | 57 | 1010.1 |
| 20260502112019 | 8 | 151 | 1.6 | 8.0 | 0.00 | 0.00 | 0.00 | 57 | 1010.1 |
| 20260502111511 | 8 | 170 | 1.6 | 6.4 | 0.00 | 0.00 | 0.00 | 58 | 1010.1 |
| 20260502111001 | 8 | 134 | 1.6 | 6.4 | 0.00 | 0.00 | 0.00 | 58 | 1010.1 |
| 20260502110455 | 8 | 157 | 1.6 | 3.2 | 0.00 | 0.00 | 0.00 | 57 | 1010.1 |
| 20260502105949 | 8 | 137 | 1.6 | 1.6 | 0.00 | 0.00 | 0.00 | 56 | 1010.1 |
| 20260502105434 | 8 | 163 | 1.6 | 6.4 | 0.00 | 0.00 | 0.00 | 57 | 100.9 |
| 20260502104927 | 8 | 173 | 1.6 | 6.4 | 0.00 | 0.00 | 0.00 | 57 | 1010.1 |
| 20260502104424 | 8 | 154 | 1.6 | 6.4 | 0.00 | 0.00 | 0.00 | 57 | 1010.1 |
| 20260502103916 | 8 | 157 | 3.2 | 6.4 | 0.00 | 0.00 | 0.00 | 56 | 1009.8 |
| 20260502103415 | 8 | 180 | 1.6 | 3.2 | 0.00 | 0.00 | 0.00 | 56 | 1009.8 |
| 20260502102902 | 8 | 196 | 6.4 | 8.0 | 0.00 | 0.00 | 0.00 | 56 | 1009.8 |
| 20260502102350 | 8 | 161 | 1.6 | 8.0 | 0.00 | 0.00 | 0.00 | 56 | 1009.8 |
| 20260502101845 | 8 | 180 | 0.0 | 8.0 | 0.00 | 0.00 | 0.00 | 56 | 1009.8 |
| 20260502101343 | 8 | 199 | 9.7 | 17.7 | 0.00 | 0.00 | 0.00 | 55 | 1009.4 |
| 20260502100842 | 8 | 143 | 3.2 | 6.4 | 0.00 | 0.00 | 0.00 | 54 | 1009.8 |
| 20260502100341 | 8 | 178 | 3.2 | 16.1 | 0.00 | 0.00 | 0.00 | 55 | 1009.4 |
| 20260502091216 | 9 | 176 | 1.6 | 8.0 | 0.00 | 0.00 | 0.00 | 53 | 1009.1 |
| 20260502090712 | 10 | 152 | 3.2 | 6.4 | 0.00 | 0.00 | 0.00 | 52 | 1009.1 |
| 20260502090200 | 10 | 158 | 1.6 | 6.4 | 0.00 | 0.00 | 0.00 | 52 | 100.9 |
| 20260502071249 | 12 | 137 | 1.6 | 8.0 | 0.00 | 0.20 | 0.00 | 53 | 1008.4 |
| 20260502070725 | 12 | 156 | 1.6 | 6.4 | 0.00 | 0.20 | 0.00 | 54 | 1008.4 |
| 20260502070223 | 12 | 181 | 4.8 | 11.3 | 0.00 | 0.20 | 0.00 | 53 | 1008.1 |
| 20260502065718 | 12 | 166 | 4.8 | 8.0 | 0.00 | 0.20 | 0.00 | 53 | 1008.1 |
| 20260502065214 | 12 | 210 | 3.2 | 6.4 | 0.00 | 0.20 | 0.00 | 54 | 1008.1 |
| 20260502064708 | 12 | 180 | 1.6 | 6.4 | 0.00 | 0.20 | 0.00 | 53 | 1008.1 |
| 20260502064157 | 12 | 135 | 0.0 | 12.9 | 0.00 | 0.20 | 0.00 | 53 | 1008.1 |
| 20260502063654 | 12 | 135 | 0.0 | 3.2 | 0.00 | 0.20 | 0.00 | 53 | 1008.4 |
| 20260502063134 | 12 | 168 | 0.0 | 1.6 | 0.00 | 0.20 | 0.00 | 52 | 1008.1 |
| 20260502062519 | 12 | 135 | 0.0 | 6.4 | 0.00 | 0.20 | 0.00 | 52 | 1008.1 |
| 20260502061607 | 12 | 169 | 0.0 | 6.4 | 0.00 | 0.20 | 0.00 | 53 | 1008.4 |
| 20260502061049 | 12 | 180 | 0.0 | 0.0 | 0.00 | 0.20 | 0.00 | 52 | 1008.4 |
| 20260502060134 | 12 | 156 | 0.0 | 0.0 | 0.00 | 0.20 | 0.00 | 52 | 1008.4 |
| 20260502055629 | 12 | 135 | 0.0 | 3.2 | 0.00 | 0.20 | 0.00 | 52 | 1008.4 |
| 20260502055114 | 12 | 135 | 1.6 | 6.4 | 0.00 | 0.20 | 0.00 | 52 | 1008.4 |
| 20260502054538 | 12 | 156 | 0.0 | 3.2 | 0.00 | 0.20 | 0.00 | 52 | 1008.4 |
| 20260502054034 | 12 | 180 | 1.6 | 6.4 | 0.00 | 0.20 | 0.00 | 52 | 1008.4 |
| 20260502053531 | 12 | 180 | 0.0 | 1.6 | 0.00 | 0.20 | 0.00 | 52 | 1008.4 |
| 20260502053013 | 12 | 180 | 0.0 | 3.2 | 0.00 | 0.20 | 0.00 | 52 | 1008.8 |
| 20260502052457 | 12 | 180 | 0.0 | 3.2 | 0.00 | 0.20 | 0.00 | 52 | 1008.4 |
| 20260502051933 | 12 | 135 | 0.0 | 1.6 | 0.00 | 0.20 | 0.00 | 52 | 1008.4 |
| 20260502051426 | 12 | 135 | 0.0 | 1.6 | 0.00 | 0.20 | 0.00 | 51 | 1008.4 |
| 20260502050917 | 12 | 180 | 1.6 | 3.2 | 0.00 | 0.20 | 0.00 | 51 | 1008.8 |
| 20260502050405 | 12 | 156 | 0.0 | 3.2 | 0.00 | 0.20 | 0.00 | 51 | 1008.8 |
| 20260502045858 | 12 | 171 | 3.2 | 3.2 | 0.00 | 0.20 | 0.00 | 51 | 1008.8 |
| 20260502045348 | 12 | 135 | 1.6 | 3.2 | 0.00 | 0.20 | 0.00 | 51 | 1008.4 |
| 20260502044839 | 12 | 180 | 0.0 | 3.2 | 0.00 | 0.20 | 0.00 | 51 | 1008.8 |
| 20260502044328 | 13 | 180 | 0.0 | 1.6 | 0.00 | 0.20 | 0.00 | 51 | 1008.4 |
| 20260502043811 | 13 | 180 | 0.0 | 1.6 | 0.00 | 0.20 | 0.00 | 51 | 1008.4 |
| 20260502043303 | 13 | 180 | 0.0 | 3.2 | 0.00 | 0.20 | 0.00 | 51 | 1008.4 |
| 20260502042717 | 13 | 135 | 0.0 | 0.0 | 0.00 | 0.20 | 0.00 | 51 | 1008.8 |
| 20260502042211 | 13 | 180 | 1.6 | 3.2 | 0.00 | 0.20 | 0.00 | 51 | 1008.4 |
| 20260502041657 | 13 | 180 | 0.0 | 3.2 | 0.00 | 0.20 | 0.00 | 50 | 1008.4 |
| 20260502041149 | 13 | 180 | 1.6 | 3.2 | 0.00 | 0.20 | 0.00 | 51 | 1008.4 |
| 20260502040642 | 13 | 135 | 0.0 | 3.2 | 0.00 | 0.20 | 0.00 | 50 | 1008.4 |
| 20260502040142 | 13 | 155 | 1.6 | 3.2 | 0.00 | 0.20 | 0.00 | 51 | 1008.1 |
| 20260502035627 | 13 | 136 | 1.6 | 3.2 | 0.00 | 0.20 | 0.00 | 50 | 1008.4 |
| 20260502035110 | 13 | 109 | 1.6 | 11.3 | 0.00 | 0.20 | 0.00 | 50 | 1008.1 |
| 20260502034605 | 13 | 153 | 4.8 | 8.0 | 0.00 | 0.20 | 0.00 | 50 | 1008.1 |
| 20260502034103 | 13 | 159 | 1.6 | 20.9 | 0.00 | 0.20 | 0.00 | 50 | 1007.7 |
| 20260502033555 | 13 | 173 | 4.8 | 12.9 | 0.00 | 0.20 | 0.00 | 49 | 1008.1 |
| 20260502033051 | 13 | 202 | 3.2 | 3.2 | 0.00 | 0.20 | 0.00 | 50 | 1008.1 |
| 20260502032530 | 13 | 146 | 3.2 | 11.3 | 0.00 | 0.20 | 0.00 | 50 | 1008.1 |
| 20260502032017 | 13 | 132 | 3.2 | 11.3 | 0.00 | 0.20 | 0.00 | 50 | 1008.1 |
| 20260502031516 | 14 | 117 | 1.6 | 8.0 | 0.00 | 0.20 | 0.00 | 50 | 1008.1 |
| 20260502031016 | 14 | 149 | 3.2 | 6.4 | 0.00 | 0.20 | 0.00 | 50 | 1007.7 |
| 20260502030513 | 14 | 190 | 3.2 | 8.0 | 0.00 | 0.20 | 0.00 | 50 | 1007.7 |
| 20260502030005 | 14 | 180 | 0.0 | 1.6 | 0.00 | 0.20 | 0.00 | 52 | 1007.4 |
| 20260502025447 | 14 | 180 | 0.0 | 1.6 | 0.00 | 0.20 | 0.00 | 53 | 1007.4 |
| 20260502024928 | 14 | 180 | 0.0 | 1.6 | 0.00 | 0.20 | 0.00 | 53 | 1007.4 |
| 20260502024422 | 14 | 360 | 0.0 | 1.6 | 0.00 | 0.20 | 0.00 | 51 | 1007.1 |
| 20260502023920 | 14 | 360 | 0.0 | 0.0 | 0.00 | 0.20 | 0.00 | 50 | 1007.1 |
| 20260502023354 | 14 | 360 | 0.0 | 1.6 | 0.03 | 0.20 | 0.00 | 49 | 1006.7 |
| 20260502022846 | 13 | 45 | 0.0 | 6.4 | 0.08 | 0.20 | 0.00 | 49 | 1006.7 |
| 20260502022338 | 13 | 156 | 0.0 | 0.0 | 0.08 | 0.20 | 0.00 | 50 | 1006.7 |
| 20260502021833 | 14 | 156 | 0.0 | 0.0 | 0.08 | 0.20 | 0.00 | 49 | 1007.1 |
| 20260502021328 | 14 | 156 | 0.0 | 0.0 | 0.08 | 0.20 | 0.00 | 48 | 1006.7 |
| 20260502020823 | 14 | 156 | 0.0 | 0.0 | 0.10 | 0.20 | 0.00 | 48 | 1006.7 |
| 20260502020317 | 14 | 156 | 0.0 | 1.6 | 0.10 | 0.20 | 0.00 | 48 | 1006.7 |
| 20260502015808 | 14 | 270 | 0.0 | 3.2 | 0.10 | 0.20 | 0.00 | 48 | 1007.1 |
| 20260502015255 | 14 | 180 | 0.0 | 0.0 | 0.13 | 0.20 | 0.00 | 47 | 1007.1 |
| 20260502014753 | 15 | 360 | 0.0 | 1.6 | 0.13 | 0.20 | 0.00 | 47 | 1006.7 |
| 20260502014248 | 15 | 315 | 0.0 | 1.6 | 0.13 | 0.20 | 0.00 | 46 | 1007.1 |
| 20260502013746 | 15 | 315 | 0.0 | 3.2 | 0.13 | 0.20 | 0.00 | 45 | 1007.1 |
| 20260502013232 | 15 | 225 | 0.0 | 1.6 | 0.08 | 0.15 | 0.00 | 44 | 1006.7 |
| 20260502012627 | 15 | 204 | 0.0 | 1.6 | 0.05 | 0.13 | 0.00 | 44 | 1006.7 |
| 20260502012107 | 15 | 246 | 0.0 | 1.6 | 0.05 | 0.13 | 0.00 | 42 | 1006.7 |
| 20260502011556 | 15 | 135 | 0.0 | 1.6 | 0.05 | 0.13 | 0.00 | 40 | 1006.4 |
| 20260502011053 | 15 | 360 | 0.0 | 1.6 | 0.03 | 0.10 | 0.00 | 38 | 1006.4 |
| 20260502010548 | 15 | 360 | 0.0 | 1.6 | 0.03 | 0.10 | 0.00 | 38 | 1006.0 |
| 20260502010046 | 15 | 360 | 0.0 | 1.6 | 0.03 | 0.10 | 0.00 | 38 | 1006.0 |
| 20260502005526 | 15 | 360 | 0.0 | 0.0 | 0.00 | 0.08 | 0.00 | 37 | 1005.7 |
| 20260502005007 | 16 | 34 | 0.0 | 3.2 | 0.00 | 0.08 | 0.00 | 37 | 1005.7 |
| 20260502004458 | 16 | 360 | 0.0 | 6.4 | 0.05 | 0.08 | 0.00 | 37 | 1005.4 |
| 20260502003954 | 16 | 360 | 0.0 | 6.4 | 0.05 | 0.08 | 0.00 | 36 | 1005.4 |
| 20260502003448 | 16 | 349 | 1.6 | 8.0 | 0.05 | 0.08 | 0.00 | 36 | 1005.4 |
| 20260502002942 | 16 | 323 | 3.2 | 6.4 | 0.05 | 0.08 | 0.00 | 36 | 1005.4 |
| 20260502002434 | 16 | 353 | 4.8 | 12.9 | 0.08 | 0.08 | 0.00 | 35 | 1005.4 |
| 20260502001918 | 16 | 360 | 0.0 | 6.4 | 0.08 | 0.08 | 0.00 | 36 | 1005.4 |
| 20260502001417 | 16 | 356 | 1.6 | 6.4 | 0.08 | 0.08 | 0.00 | 35 | 1005.4 |
| 20260502000900 | 16 | 45 | 0.0 | 3.2 | 0.08 | 0.08 | 0.00 | 36 | 1005.4 |
| 20260502000355 | 16 | 360 | 1.6 | 1.6 | 0.08 | 0.08 | 0.00 | 35 | 1005.4 |
| 20260501235850 | 16 | 360 | 1.6 | 6.4 | 0.08 | 0.08 | 0.00 | 35 | 1005.4 |
| 20260501235347 | 16 | 360 | 0.0 | 8.0 | 0.08 | 0.08 | 0.00 | 35 | 1005.4 |
| 20260501234845 | 16 | 328 | 1.6 | 3.2 | 0.08 | 0.08 | 0.00 | 35 | 1005.4 |
| 20260501234337 | 16 | 360 | 0.0 | 1.6 | 0.03 | 0.03 | 0.00 | 35 | 1005.4 |
| 20260501233826 | 16 | 315 | 0.0 | 0.0 | 0.03 | 0.03 | 0.00 | 34 | 1005.0 |
| 20260501233323 | 16 | 341 | 1.6 | 3.2 | 0.03 | 0.03 | 0.00 | 34 | 1005.0 |
| 20260501232820 | 17 | 326 | 3.2 | 6.4 | 0.03 | 0.03 | 0.00 | 33 | 1005.0 |
| 20260501232313 | 17 | 331 | 4.8 | 8.0 | 0.00 | 0.00 | 0.00 | 33 | 1005.0 |
| 20260501231807 | 17 | 336 | 4.8 | 6.4 | 0.00 | 0.00 | 0.00 | 32 | 1005.0 |
| 20260501231717 | 17 | 1 | 3.2 | 6.4 | 0.00 | 0.00 | 0.00 | 33 | 1005.0 |
| 20260501231210 | 17 | 351 | 4.8 | 8.0 | 0.00 | 0.00 | 0.00 | 31 | 1005.0 |
| 20260501230706 | 17 | 360 | 0.0 | 11.3 | 0.00 | 0.00 | 0.00 | 32 | 1005.0 |
| 20260501230159 | 17 | 350 | 1.6 | 12.9 | 0.00 | 0.00 | 0.00 | 31 | 1005.0 |
| 20260501225641 | 17 | 360 | 1.6 | 16.1 | 0.00 | 0.00 | 0.00 | 31 | 1005.0 |
| 20260501225134 | 17 | 327 | 3.2 | 8.0 | 0.00 | 0.00 | 0.00 | 30 | 100.2 |
| 20260501224630 | 17 | 331 | 3.2 | 8.0 | 0.00 | 0.00 | 0.00 | 31 | 1005.0 |
| 20260501224119 | 18 | 331 | 6.4 | 12.9 | 0.00 | 0.00 | 0.00 | 30 | 1005.0 |
| 20260501223603 | 18 | 352 | 4.8 | 11.3 | 0.00 | 0.00 | 0.00 | 30 | 1005.0 |
| 20260501223058 | 18 | 321 | 1.6 | 6.4 | 0.00 | 0.00 | 0.00 | 30 | 1005.4 |
| 20260501222555 | 18 | 3 | 4.8 | 11.3 | 0.00 | 0.00 | 0.00 | 30 | 100.5 |
| 20260501222040 | 18 | 180 | 0.0 | 1.6 | 0.00 | 0.00 | 0.00 | 30 | 1005.4 |
| 20260501221534 | 18 | 221 | 0.0 | 12.9 | 0.00 | 0.00 | 0.00 | 31 | 1005.4 |
| 20260501221032 | 18 | 329 | 1.6 | 11.3 | 0.00 | 0.00 | 0.00 | 30 | 1005.4 |
| 20260501220509 | 18 | 258 | 1.6 | 8.0 | 0.00 | 0.00 | 0.00 | 30 | 1005.4 |
| 20260501220007 | 18 | 346 | 1.6 | 11.3 | 0.00 | 0.00 | 0.00 | 30 | 1005.4 |
| 20260501215459 | 18 | 349 | 3.2 | 16.1 | 0.00 | 0.00 | 0.00 | 30 | 1005.4 |
| 20260501214954 | 18 | 315 | 0.0 | 11.3 | 0.00 | 0.00 | 0.00 | 30 | 1005.4 |
| 20260501214445 | 18 | 329 | 4.8 | 11.3 | 0.00 | 0.00 | 0.00 | 29 | 1005.4 |
| 20260501213940 | 18 | 316 | 1.6 | 16.1 | 0.00 | 0.00 | 0.00 | 29 | 1005.4 |
| 20260501213434 | 18 | 318 | 4.8 | 8.0 | 0.00 | 0.00 | 0.00 | 29 | 1005.7 |
| 20260501212918 | 18 | 318 | 4.8 | 8.0 | 0.00 | 0.00 | 0.00 | 29 | 1005.7 |
| 20260501212414 | 18 | 342 | 3.2 | 17.7 | 0.00 | 0.00 | 0.00 | 30 | 1005.7 |
| 20260501211908 | 18 | 14 | 4.8 | 12.9 | 0.00 | 0.00 | 0.00 | 29 | 1005.7 |
| 20260501211400 | 18 | 330 | 3.2 | 8.0 | 0.00 | 0.00 | 0.00 | 29 | 1005.7 |
| 20260501210855 | 18 | 358 | 1.6 | 6.4 | 0.00 | 0.00 | 0.00 | 29 | 1005.4 |
| 20260501210350 | 19 | 329 | 8.0 | 12.9 | 0.00 | 0.00 | 0.00 | 29 | 1005.7 |
| 20260501205849 | 19 | 328 | 3.2 | 8.0 | 0.00 | 0.00 | 0.00 | 29 | 1005.7 |
| 20260501205343 | 19 | 326 | 1.6 | 16.1 | 0.00 | 0.00 | 0.00 | 28 | 1005.7 |
| 20260501204836 | 19 | 18 | 1.6 | 6.4 | 0.00 | 0.00 | 0.00 | 30 | 1005.7 |
| 20260501204335 | 19 | 333 | 3.2 | 11.3 | 0.00 | 0.00 | 0.00 | 28 | 1005.7 |
| 20260501203834 | 19 | 332 | 8.0 | 17.7 | 0.00 | 0.00 | 0.00 | 27 | 1005.7 |
| 20260501203323 | 19 | 324 | 8.0 | 17.7 | 0.00 | 0.00 | 0.00 | 28 | 1006.0 |
| 20260501202816 | 19 | 325 | 4.8 | 16.1 | 0.00 | 0.00 | 0.00 | 26 | 1006.0 |
| 20260501202312 | 20 | 327 | 12.9 | 20.9 | 0.00 | 0.00 | 0.00 | 26 | 1006.0 |
| 20260501201806 | 20 | 330 | 4.8 | 17.7 | 0.00 | 0.00 | 0.00 | 26 | 1006.0 |
| 20260501201305 | 20 | 288 | 1.6 | 8.0 | 0.00 | 0.00 | 0.00 | 28 | 1006.4 |
| 20260501200800 | 20 | 344 | 3.2 | 17.7 | 0.00 | 0.00 | 0.00 | 28 | 1006.4 |
| 20260501200257 | 20 | 221 | 1.6 | 6.4 | 0.00 | 0.00 | 0.00 | 29 | 1006.4 |
| 20260501195744 | 20 | 326 | 4.8 | 8.0 | 0.00 | 0.00 | 0.00 | 27 | 1006.4 |
| 20260501195240 | 20 | 315 | 1.6 | 16.1 | 0.00 | 0.00 | 0.00 | 29 | 1006.4 |
| 20260501194732 | 20 | 332 | 1.6 | 12.9 | 0.00 | 0.00 | 0.00 | 29 | 1006.4 |
| 20260501194216 | 20 | 280 | 1.6 | 22.5 | 0.00 | 0.00 | 0.00 | 29 | 1006.7 |
| 20260501193715 | 21 | 11 | 1.6 | 3.2 | 0.00 | 0.00 | 0.00 | 30 | 1006.7 |
| 20260501193213 | 21 | 347 | 3.2 | 17.7 | 0.00 | 0.00 | 0.00 | 28 | 1006.7 |
| 20260501192706 | 21 | 285 | 1.6 | 8.0 | 0.00 | 0.00 | 0.00 | 28 | 100.5 |
| 20260501192202 | 21 | 351 | 6.4 | 12.9 | 0.00 | 0.00 | 0.00 | 28 | 1007.1 |
| 20260501191802 | 21 | 324 | 6.4 | 12.9 | 0.00 | 0.00 | 0.00 | 26 | 1007.4 |
| 20260501191257 | 21 | 204 | 1.6 | 12.9 | 0.00 | 0.00 | 0.00 | 28 | 1007.4 |
| 20260501190752 | 21 | 311 | 3.2 | 6.4 | 0.00 | 0.00 | 0.00 | 27 | 1007.4 |
| 20260501190249 | 21 | 30 | 1.6 | 3.2 | 0.00 | 0.00 | 0.00 | 28 | 1007.4 |
| 20260501185742 | 21 | 261 | 0.0 | 20.9 | 0.00 | 0.00 | 0.00 | 28 | 1007.7 |
| 20260501185231 | 21 | 345 | 8.0 | 16.1 | 0.00 | 0.00 | 0.00 | 25 | 1007.7 |
| 20260501184729 | 22 | 346 | 3.2 | 16.1 | 0.00 | 0.00 | 0.00 | 27 | 1007.7 |
| 20260501184224 | 22 | 271 | 1.6 | 11.3 | 0.00 | 0.00 | 0.00 | 29 | 1007.7 |
| 20260501183719 | 22 | 135 | 0.0 | 1.6 | 0.00 | 0.00 | 0.00 | 30 | 1008.1 |
| 20260501183133 | 22 | 343 | 4.8 | 11.3 | 0.00 | 0.00 | 0.00 | 26 | 1008.1 |
| 20260501182627 | 22 | 329 | 3.2 | 6.4 | 0.00 | 0.00 | 0.00 | 28 | 1008.1 |
| 20260501182117 | 22 | 293 | 3.2 | 12.9 | 0.00 | 0.00 | 0.00 | 27 | 1008.1 |
| 20260501181613 | 22 | 329 | 4.8 | 8.0 | 0.00 | 0.00 | 0.00 | 29 | 1008.1 |
| 20260501181106 | 22 | 322 | 3.2 | 6.4 | 0.00 | 0.00 | 0.00 | 28 | 1008.4 |
| 20260501180601 | 22 | 286 | 3.2 | 11.3 | 0.13 | 0.15 | 0.00 | 28 | 1008.4 |
| 20260501180100 | 22 | 308 | 3.2 | 6.4 | 0.13 | 0.15 | 0.00 | 28 | 1008.4 |
| 20260501175559 | 22 | 220 | 0.0 | 1.6 | 0.10 | 0.13 | 0.00 | 29 | 1008.4 |
| 20260501175051 | 21 | 290 | 1.6 | 11.3 | 0.08 | 0.10 | 0.00 | 29 | 1008.4 |
| 20260501174548 | 21 | 309 | 6.4 | 11.3 | 0.05 | 0.08 | 0.00 | 28 | 1008.4 |
| 20260501174042 | 21 | 207 | 0.0 | 3.2 | 0.05 | 0.08 | 0.00 | 30 | 1008.4 |
| 20260501173537 | 21 | 336 | 4.8 | 6.4 | 0.03 | 0.05 | 0.00 | 29 | 1008.8 |
| 20260501173033 | 21 | 278 | 1.6 | 6.4 | 0.05 | 0.05 | 0.00 | 28 | 1008.8 |
| 20260501172522 | 21 | 323 | 8.0 | 12.9 | 0.05 | 0.05 | 0.00 | 27 | 1008.8 |
| 20260501172021 | 21 | 337 | 3.2 | 6.4 | 0.03 | 0.03 | 0.00 | 28 | 1008.8 |
| 20260501171515 | 21 | 293 | 1.6 | 12.9 | 0.03 | 0.03 | 0.00 | 30 | 1009.1 |
| 20260501171015 | 21 | 321 | 3.2 | 17.7 | 0.03 | 0.03 | 0.00 | 29 | 1008.8 |
| 20260501170511 | 21 | 350 | 3.2 | 6.4 | 0.03 | 0.03 | 0.00 | 31 | 1009.1 |
| 20260501170000 | 21 | 89 | 0.0 | 1.6 | 0.03 | 0.03 | 0.00 | 33 | 1009.1 |
| 20260501165448 | 21 | 308 | 3.2 | 11.3 | 0.03 | 0.03 | 0.00 | 32 | 1009.1 |
| 20260501164945 | 21 | 316 | 3.2 | 11.3 | 0.03 | 0.03 | 0.00 | 29 | 1009.1 |
| 20260501164422 | 21 | 334 | 3.2 | 6.4 | 0.03 | 0.03 | 0.00 | 32 | 1009.1 |
| 20260501163919 | 21 | 317 | 4.8 | 6.4 | 0.03 | 0.03 | 0.00 | 32 | 1009.1 |
| 20260501163418 | 20 | 360 | 1.6 | 3.2 | 0.03 | 0.03 | 0.00 | 32 | 1009.4 |
| 20260501162910 | 20 | 340 | 3.2 | 12.9 | 0.00 | 0.00 | 0.00 | 32 | 1009.4 |
| 20260501162402 | 20 | 357 | 4.8 | 11.3 | 0.00 | 0.00 | 0.00 | 30 | 1009.4 |
| 20260501161853 | 20 | 288 | 1.6 | 3.2 | 0.00 | 0.00 | 0.00 | 33 | 1009.4 |
| 20260501161335 | 20 | 320 | 3.2 | 6.4 | 0.00 | 0.00 | 0.00 | 33 | 1009.8 |
| 20260501160821 | 20 | 316 | 1.6 | 3.2 | 0.00 | 0.00 | 0.00 | 32 | 1009.8 |
| 20260501160309 | 20 | 342 | 6.4 | 11.3 | 0.00 | 0.00 | 0.00 | 35 | 1009.8 |
| 20260501155804 | 20 | 314 | 1.6 | 11.3 | 0.00 | 0.00 | 0.00 | 38 | 1009.8 |
| 20260501155244 | 20 | 4 | 3.2 | 8.0 | 0.00 | 0.00 | 0.00 | 35 | 1010.1 |
| 20260501154739 | 19 | 330 | 3.2 | 8.0 | 0.00 | 0.00 | 0.00 | 35 | 1010.1 |
| 20260501154233 | 19 | 15 | 1.6 | 3.2 | 0.00 | 0.00 | 0.00 | 33 | 1010.1 |
| 20260501153727 | 19 | 5 | 3.2 | 8.0 | 0.00 | 0.00 | 0.00 | 34 | 100.9 |
| 20260501153219 | 19 | 304 | 1.6 | 8.0 | 0.00 | 0.00 | 0.00 | 35 | 1010.1 |
| 20260501152711 | 18 | 335 | 4.8 | 8.0 | 0.00 | 0.00 | 0.00 | 34 | 1010.4 |
| 20260501152201 | 18 | 132 | 1.6 | 6.4 | 0.00 | 0.00 | 0.00 | 36 | 1010.4 |
| 20260501151656 | 18 | 360 | 1.6 | 3.2 | 0.00 | 0.00 | 0.00 | 34 | 1010.4 |
| 20260501151144 | 17 | 72 | 0.0 | 6.4 | 0.00 | 0.00 | 0.00 | 37 | 1010.4 |
| 20260501150632 | 17 | 315 | 1.6 | 8.0 | 0.00 | 0.00 | 0.00 | 33 | 1010.4 |
| 20260501150129 | 17 | 180 | 3.2 | 3.2 | 0.00 | 0.00 | 0.00 | 29 | 1010.8 |
| 20260501145624 | 17 | 344 | 3.2 | 6.4 | 0.00 | 0.00 | 0.00 | 35 | 1010.8 |
| 20260501144057 | 17 | 351 | 3.2 | 3.2 | 0.00 | 0.00 | 0.00 | 35 | 1010.8 |
| 20260501143557 | 16 | 360 | 1.6 | 6.4 | 0.00 | 0.00 | 0.00 | 34 | 1010.8 |
| 20260501143055 | 16 | 137 | 1.6 | 3.2 | 0.00 | 0.00 | 0.00 | 32 | 1010.8 |
| 20260501142547 | 16 | 160 | 1.6 | 3.2 | 0.00 | 0.00 | 0.00 | 35 | 1010.8 |
| 20260501142029 | 16 | 162 | 0.0 | 6.4 | 0.00 | 0.00 | 0.00 | 37 | 1010.8 |
| 20260501141525 | 15 | 359 | 6.4 | 11.3 | 0.00 | 0.00 | 0.00 | 37 | 1010.8 |